FW8889 Weather Reports


time (UTC)temp
C
wind
direction
speed
KPH
gust
KPH
rain 1hr
cm
rain 24hr
cm
rain mn
cm
humidity
%
barometer
mb
20260901021550 17 0 0.0 0.0 0.00 0.00 0.00 82 1018.8
20260901020055 17 0 0.0 0.0 0.00 0.00 0.00 81 1018.7
20260901014548 17 0 0.0 0.0 0.00 0.00 0.00 80 1018.9
20260901013058 18 0 0.0 0.0 0.00 0.00 0.00 80 1018.9
20260901011549 18 0 0.0 1.6 0.00 0.00 0.00 79 1019.0
20260901010115 18 0 0.0 1.6 0.00 0.00 0.00 78 1018.9
20260901004556 18 0 0.0 1.6 0.00 0.00 0.00 77 1018.8
20260901003052 18 0 0.0 1.6 0.00 0.00 0.00 77 1018.8
20260901001558 18 0 0.0 1.6 0.00 0.00 0.00 76 1018.7
20260901000057 18 0 0.0 1.6 0.00 0.00 0.00 75 1018.8
20260831234559 19 0 0.0 1.6 0.00 0.00 0.00 74 1018.8
20260831233049 19 0 0.0 3.2 0.00 0.00 0.00 72 1019.0
20260831231555 20 177 0.0 3.2 0.00 0.00 0.00 70 1019.0
20260831230109 20 0 0.0 1.6 0.00 0.00 0.00 68 1019.1
20260831224555 20 0 0.0 3.2 0.00 0.00 0.00 66 1019.3
20260831223101 20 0 0.0 4.8 0.00 0.00 0.00 64 1019.3
20260831221559 21 182 1.6 4.8 0.00 0.00 0.00 64 1019.3
20260831220055 21 182 0.0 4.8 0.00 0.00 0.00 63 1019.1
20260831214602 22 202 0.0 4.8 0.00 0.00 0.00 63 1019.1
20260831213049 22 153 1.6 6.4 0.00 0.00 0.00 62 1019.2
20260831211544 23 154 3.2 8.0 0.00 0.00 0.00 60 1019.2
20260831210053 23 166 3.2 8.0 0.00 0.00 0.00 58 1019.2
20260831204551 25 124 1.6 4.8 0.00 0.00 0.00 55 1019.2
20260831203049 26 0 0.0 6.4 0.00 0.00 0.00 54 1019.2
20260831201556 27 0 0.0 4.8 0.00 0.00 0.00 44 1019.2
20260831200105 26 140 0.0 4.8 0.00 0.00 0.00 40 1019.3
20260831194616 26 99 0.0 6.4 0.00 0.00 0.00 40 1019.2
20260831193050 26 109 0.0 4.8 0.00 0.00 0.00 44 1019.2
20260831191555 25 342 1.6 4.8 0.00 0.00 0.00 54 1019.6
20260831190100 25 101 1.6 6.4 0.00 0.00 0.00 56 1019.7
20260831184551 25 290 1.6 11.3 0.00 0.00 0.00 53 1019.9
20260831183057 24 201 1.6 8.0 0.00 0.00 0.00 58 1019.9
20260831181608 24 174 1.6 8.0 0.00 0.00 0.00 55 1020.0
20260831180111 25 330 0.0 3.2 0.00 0.00 0.00 48 1020.0
20260831174559 24 36 0.0 3.2 0.00 0.00 0.00 46 1020.0
20260831173102 23 5 1.6 4.8 0.00 0.00 0.00 50 1020.1
20260831171604 23 0 0.0 3.2 0.00 0.00 0.00 49 1020.3
20260831170108 23 297 0.0 4.8 0.00 0.00 0.00 50 1020.6
20260831164559 22 81 0.0 4.8 0.00 0.00 0.00 56 1020.8
20260831163103 22 320 0.0 3.2 0.00 0.00 0.00 53 1020.7
20260831161555 22 0 0.0 4.8 0.00 0.00 0.00 56 1021.0
20260831160051 22 0 0.0 1.6 0.00 0.00 0.00 54 1021.1
20260831154623 21 0 0.0 3.2 0.00 0.00 0.00 53 1021.2
20260831153050 21 0 0.0 4.8 0.00 0.00 0.00 55 1021.4
20260831151605 21 0 0.0 3.2 0.00 0.00 0.00 59 1021.4
20260831150053 20 0 0.0 3.2 0.00 0.00 0.00 59 1021.4
20260831144550 20 0 0.0 3.2 0.00 0.00 0.00 60 1021.6
20260831143055 20 0 0.0 3.2 0.00 0.00 0.00 60 1021.6
20260831141555 19 0 0.0 1.6 0.00 0.00 0.00 61 1021.5
20260831140056 19 0 0.0 1.6 0.00 0.00 0.00 63 1021.5
20260831134554 18 0 0.0 1.6 0.00 0.00 0.00 65 1021.6
20260831133050 18 0 0.0 1.6 0.00 0.00 0.00 70 1021.5
20260831131547 17 0 0.0 1.6 0.00 0.00 0.00 72 1021.4
20260831130107 17 0 0.0 1.6 0.00 0.00 0.00 74 1021.3
20260831124601 16 0 0.0 3.2 0.00 0.00 0.00 79 1021.3
20260831123052 16 0 0.0 3.2 0.00 0.00 0.00 85 1021.2
20260831121549 15 0 0.0 1.6 0.00 0.00 0.00 86 1021.0
20260831120057 15 0 0.0 3.2 0.00 0.00 0.00 84 1020.9
20260831114557 14 0 0.0 0.0 0.00 0.00 0.00 83 1020.8
20260831113054 14 0 0.0 0.0 0.00 0.00 0.00 83 1020.8
20260831111550 14 0 0.0 0.0 0.00 0.00 0.00 84 1020.8
20260831110059 14 0 0.0 0.0 0.00 0.00 0.00 84 1020.9
20260831104610 14 0 0.0 0.0 0.00 0.00 0.00 84 1020.7
20260831103053 14 0 0.0 0.0 0.00 0.00 0.00 85 1020.7
20260831101552 15 0 0.0 0.0 0.00 0.00 0.00 85 1020.5
20260831100122 15 0 0.0 0.0 0.00 0.00 0.00 85 1020.4
20260831094553 15 0 0.0 0.0 0.00 0.00 0.00 85 1020.2
20260831093051 15 0 0.0 0.0 0.00 0.00 0.00 85 1020.0
20260831091555 15 0 0.0 0.0 0.00 0.00 0.00 85 1019.8
20260831090056 15 0 0.0 0.0 0.00 0.00 0.00 85 1019.7
20260831084604 16 0 0.0 0.0 0.00 0.00 0.00 86 1019.5
20260831083052 16 0 0.0 0.0 0.00 0.00 0.00 85 1019.5
20260831081600 16 0 0.0 0.0 0.00 0.00 0.00 86 1019.2
20260831080105 16 0 0.0 0.0 0.00 0.00 0.00 86 1019.2
20260831074555 17 0 0.0 0.0 0.00 0.00 0.00 85 1019.1
20260831073054 17 0 0.0 0.0 0.00 0.00 0.00 85 1018.8
20260831071601 17 0 0.0 0.0 0.00 0.00 0.00 84 1018.8
20260831070113 17 0 0.0 0.0 0.00 0.00 0.00 84 1018.8
20260831064554 18 0 0.0 1.6 0.00 0.00 0.00 84 1018.7
20260831063053 18 0 0.0 0.0 0.00 0.00 0.00 83 1018.6
20260831061552 18 0 0.0 0.0 0.00 0.00 0.00 82 1018.4
20260831060058 19 0 0.0 1.6 0.00 0.00 0.00 81 1018.4
20260831054555 20 0 0.0 3.2 0.00 0.00 0.00 81 1018.3
20260831053053 20 0 0.0 1.6 0.00 0.00 0.00 80 1018.2
20260831051600 20 0 0.0 11.3 0.00 0.00 0.00 79 1018.2
20260831050058 20 0 0.0 1.6 0.00 0.00 0.00 79 1017.9
20260831044558 21 0 0.0 4.8 0.00 0.00 0.00 78 1018.0
20260831043053 21 0 0.0 3.2 0.00 0.00 0.00 77 1017.7
20260831041601 21 0 0.0 3.2 0.00 0.00 0.00 75 1017.6
20260831040055 22 0 0.0 6.4 0.00 0.00 0.00 74 1017.6
20260831034554 22 0 0.0 3.2 0.00 0.00 0.00 74 1017.5
20260831033107 22 119 0.0 6.4 0.00 0.00 0.00 73 1017.6
20260831031601 22 125 0.0 6.4 0.00 0.00 0.00 74 1017.7
20260831030103 22 0 1.6 12.9 0.00 0.00 0.00 74 1017.6
20260831024611 22 0 0.0 3.2 0.00 0.00 0.00 75 1017.6
20260831023053 22 0 0.0 3.2 0.00 0.00 0.00 75 1017.5